Flag for Australia Weather past 2 weeks in Brisbane, Queensland, Australia

Now
68 °F

Scattered clouds.


Feels Like: 68 °F
Forecast: 60 / 76 °F
Wind: 8 mph from South

Location: Brisbane Airport M. O

Current Time: Oct 22, 2014 at 8:38:56 AM

Latest Report: Oct 22, 2014 at 8:00 AM


Visibility: N/A

Pressure: 30.27 "Hg

Humidity: 60%

Dew point: 54 °F

Location of BrisbaneLocation

Historic Weather in Brisbane — Graph

°F

Brisbane temperature yesterday

Maximum temperature yesterday: 77 °F (at 12:30 PM)
Minimum temperature yesterday: 64 °F (at 12:00 AM)
Average temperature yesterday: 69 °F

Past Weeks' High & Low Weather Summary

 TemperatureHumidityPressure
High82 °F (Oct 14, 12:30 PM)100% (Oct 8, 5:00 AM)30.33 "Hg (Oct 8, 5:00 AM)
Low54 °F (Oct 15, 4:30 AM)14% (Oct 14, 5:00 PM)29.74 "Hg (Oct 14, 2:00 PM)
Average69 °F62%30.08 "Hg
* Reported Oct 7 7:00 AM — Oct 22 7:00 AM, Brisbane, Weather by CustomWeather, © 2014

Note: Actual official high and low records may vary slightly from our data, if they occured in-between our weather recording intervals... More about our weather records

Advertising

Brisbane weather history for previous 24 hours

 ConditionsComfort  
Time TempWeatherWind HumidityBarometerVisibility
7:00 AM
Oct 22
66 °FScattered clouds.10 mph64%30.27 "HgN/A
6:30 AM64 °FScattered clouds.10 mph68%30.27 "HgN/A
6:00 AM64 °FBroken clouds.9 mph68%30.27 "HgN/A
5:30 AM63 °FBroken clouds.8 mph73%30.24 "HgN/A
5:00 AM63 °FPartly cloudy.8 mph77%30.24 "HgN/A
4:30 AM63 °FScattered showers. Partly cloudy.7 mph77%30.24 "HgN/A
4:00 AM63 °FClear.6 mph73%30.24 "Hg10 mi
3:30 AM63 °FClear.6 mph73%30.24 "Hg10 mi
3:00 AM63 °FPassing clouds.7 mph73%30.24 "HgN/A
2:30 AM63 °FPassing clouds.7 mph77%30.27 "HgN/A
2:00 AM63 °FPassing clouds.7 mph73%30.27 "HgN/A
1:30 AM63 °FPassing clouds.7 mph77%30.27 "HgN/A
1:00 AM63 °FPassing clouds.6 mph77%30.27 "HgN/A
12:30 AM64 °FPassing clouds.9 mph73%30.30 "HgN/A
12:00 AM64 °FScattered showers. Passing clouds.12 mph73%30.30 "HgN/A
11:30 PM
Oct 21
64 °FScattered showers. Passing clouds.10 mph73%30.33 "HgN/A
11:00 PM64 °FPassing clouds.8 mph73%30.33 "HgN/A
10:30 PM66 °FPassing clouds.10 mph68%30.33 "HgN/A
10:00 PM64 °FClear.10 mph73%30.33 "Hg10 mi
9:30 PM66 °FClear.12 mph68%30.33 "Hg10 mi
9:00 PM66 °FPassing clouds.13 mph68%30.33 "HgN/A
8:30 PM68 °FClear.13 mph64%30.33 "Hg10 mi
8:00 PM68 °FClear.13 mph64%30.30 "Hg10 mi
7:30 PM68 °FClear.15 mph60%30.30 "Hg10 mi
7:00 PM68 °FClear.14 mph60%30.30 "Hg10 mi
6:30 PM70 °FPassing clouds.15 mph57%30.30 "HgN/A
6:00 PM70 °FPassing clouds.15 mph57%30.27 "HgN/A
5:30 PM70 °FPartly sunny.15 mph57%30.27 "HgN/A
5:00 PM72 °FPartly sunny.15 mph57%30.27 "HgN/A
4:50 PM72 °FPartly sunny.17 mph57%30.27 "HgN/A
4:30 PM72 °FBroken clouds.16 mph57%30.27 "HgN/A
4:00 PM72 °FBroken clouds.16 mph57%30.24 "HgN/A
3:30 PM72 °FPartly sunny.16 mph61%30.24 "HgN/A
3:00 PM73 °FBroken clouds.16 mph57%30.24 "HgN/A
2:30 PM73 °FPartly sunny.16 mph57%30.24 "HgN/A
2:00 PM73 °FBroken clouds.17 mph57%30.24 "HgN/A
1:30 PM75 °FBroken clouds.17 mph50%30.24 "HgN/A
1:00 PM75 °FBroken clouds.17 mph54%30.27 "HgN/A
12:49 PM75 °FScattered clouds.18 mph54%30.27 "HgN/A
12:30 PM77 °FScattered clouds.18 mph47%30.27 "HgN/A
12:00 PM75 °FScattered clouds.17 mph50%30.27 "HgN/A
11:30 AM75 °FScattered clouds.17 mph54%30.30 "HgN/A
11:00 AM75 °FScattered clouds.17 mph50%30.30 "HgN/A
10:30 AM75 °FScattered clouds.16 mph47%30.30 "HgN/A
10:00 AM75 °FScattered showers. Broken clouds.15 mph50%30.30 "HgN/A
9:30 AM73 °FScattered showers. Broken clouds.15 mph50%30.30 "HgN/A
9:00 AM72 °FScattered showers. Broken clouds.13 mph53%30.33 "HgN/A
8:30 AM70 °FBroken clouds.13 mph60%30.33 "HgN/A
8:00 AM70 °FScattered showers. Broken clouds.10 mph64%30.33 "HgN/A
Weather by CustomWeather, © 2014

See weather overviewHow to use our weather pages